Year,Month,Day,Hour,Minute,Value (Times are PST for temperature in C)
2013,03,24,00,00,2.10
2013,03,24,00,01,2.10
2013,03,24,00,02,2.00
2013,03,24,00,03,2.00
2013,03,24,00,04,2.00
2013,03,24,00,05,2.00
2013,03,24,00,06,2.00
2013,03,24,00,07,2.00
2013,03,24,00,08,2.00
2013,03,24,00,09,1.90
2013,03,24,00,10,1.90
2013,03,24,00,11,1.90
2013,03,24,00,12,1.90
2013,03,24,00,13,1.90
2013,03,24,00,16,1.80
2013,03,24,00,17,1.80
2013,03,24,00,18,1.80
2013,03,24,00,19,1.80
2013,03,24,00,20,1.80
2013,03,24,00,21,1.80
2013,03,24,00,22,1.80
2013,03,24,00,23,1.70
2013,03,24,00,24,1.70
2013,03,24,00,25,1.70
2013,03,24,00,26,1.60
2013,03,24,00,27,1.60
2013,03,24,00,28,1.60
2013,03,24,00,29,1.60
2013,03,24,00,30,1.50
2013,03,24,00,31,1.50
2013,03,24,00,32,1.50
2013,03,24,00,33,1.50
2013,03,24,00,34,1.50
2013,03,24,00,35,1.50
2013,03,24,00,36,1.40
2013,03,24,00,37,1.40
2013,03,24,00,38,1.40
2013,03,24,00,39,1.40
2013,03,24,00,40,1.40
2013,03,24,00,41,1.40
2013,03,24,00,42,1.30
2013,03,24,00,43,1.30
2013,03,24,00,44,1.30
2013,03,24,00,45,1.30
2013,03,24,00,46,1.30
2013,03,24,00,47,1.30
2013,03,24,00,48,1.30
2013,03,24,00,49,1.30
2013,03,24,00,50,1.30
2013,03,24,00,51,1.30
2013,03,24,00,52,1.30
2013,03,24,00,53,1.30
2013,03,24,00,54,1.30
2013,03,24,00,55,1.30
2013,03,24,00,56,1.20
2013,03,24,00,57,1.20
2013,03,24,00,58,1.20
2013,03,24,00,59,1.20
2013,03,24,01,00,1.20
2013,03,24,01,01,1.20
2013,03,24,01,02,1.20
2013,03,24,01,03,1.20
2013,03,24,01,04,1.10
2013,03,24,01,05,1.10
2013,03,24,01,06,1.10
2013,03,24,01,07,1.10
2013,03,24,01,08,1.10
2013,03,24,01,09,1.10
2013,03,24,01,10,1.10
2013,03,24,01,11,1.10
2013,03,24,01,12,1.10
2013,03,24,01,13,1.10
2013,03,24,01,14,1.10
2013,03,24,01,15,1.10
2013,03,24,01,16,1.10
2013,03,24,01,17,1.20
2013,03,24,01,18,1.20
2013,03,24,01,19,1.20
2013,03,24,01,20,1.20
2013,03,24,01,21,1.20
2013,03,24,01,22,1.20
2013,03,24,01,23,1.20
2013,03,24,01,24,1.20
2013,03,24,01,25,1.20
2013,03,24,01,26,1.20
2013,03,24,01,27,1.20
2013,03,24,01,28,1.20
2013,03,24,01,29,1.20
2013,03,24,01,30,1.20
2013,03,24,01,31,1.20
2013,03,24,01,32,1.20
2013,03,24,01,33,1.20
2013,03,24,01,34,1.30
2013,03,24,01,35,1.30
2013,03,24,01,36,1.30
2013,03,24,01,37,1.30
2013,03,24,01,38,1.30
2013,03,24,01,39,1.30
2013,03,24,01,40,1.30
2013,03,24,01,41,1.30
2013,03,24,01,42,1.30
2013,03,24,01,43,1.30
2013,03,24,01,44,1.30
2013,03,24,01,45,1.30
2013,03,24,01,46,1.30
2013,03,24,01,47,1.30
2013,03,24,01,48,1.30
2013,03,24,01,49,1.30
2013,03,24,01,50,1.30
2013,03,24,01,51,1.30
2013,03,24,01,52,1.30
2013,03,24,01,53,1.30
2013,03,24,01,54,1.20
2013,03,24,01,55,1.20
2013,03,24,01,56,1.20
2013,03,24,01,57,1.20
2013,03,24,01,58,1.20
2013,03,24,01,59,1.10
2013,03,24,02,00,1.10
2013,03,24,02,01,1.10
2013,03,24,02,02,1.10
2013,03,24,02,03,1.10
2013,03,24,02,04,1.10
2013,03,24,02,05,1.10
2013,03,24,02,06,1.10
2013,03,24,02,07,1.10
2013,03,24,02,08,1.10
2013,03,24,02,09,1.00
2013,03,24,02,10,1.00
2013,03,24,02,11,1.00
2013,03,24,02,12,1.00
2013,03,24,02,13,1.00
2013,03,24,02,14,1.00
2013,03,24,02,15,1.00
2013,03,24,02,16,1.00
2013,03,24,02,17,1.00
2013,03,24,02,18,1.00
2013,03,24,02,19,1.00
2013,03,24,02,20,1.00
2013,03,24,02,21,1.00
2013,03,24,02,22,1.00
2013,03,24,02,23,1.00
2013,03,24,02,24,1.00
2013,03,24,02,25,1.00
2013,03,24,02,26,1.10
2013,03,24,02,27,1.10
2013,03,24,02,28,1.10
2013,03,24,02,29,1.10
2013,03,24,02,30,1.10
2013,03,24,02,31,1.10
2013,03,24,02,32,1.10
2013,03,24,02,33,1.10
2013,03,24,02,34,1.10
2013,03,24,02,35,1.10
2013,03,24,02,36,1.10
2013,03,24,02,37,1.10
2013,03,24,02,38,1.10
2013,03,24,02,39,1.10
2013,03,24,02,40,1.10
2013,03,24,02,41,1.10
2013,03,24,02,42,1.10
2013,03,24,02,43,1.10
2013,03,24,02,44,1.10
2013,03,24,02,45,1.10
2013,03,24,02,46,1.10
2013,03,24,02,47,1.10
2013,03,24,02,48,1.10
2013,03,24,02,49,1.10
2013,03,24,02,50,1.00
2013,03,24,02,51,1.00
2013,03,24,02,52,1.00
2013,03,24,02,53,1.00
2013,03,24,02,54,1.00
2013,03,24,02,55,1.00
2013,03,24,02,56,1.00
2013,03,24,02,57,1.00
2013,03,24,02,58,1.00
2013,03,24,02,59,1.10
2013,03,24,03,00,1.10
2013,03,24,03,01,1.10
2013,03,24,03,02,1.10
2013,03,24,03,03,1.10
2013,03,24,03,04,1.10
2013,03,24,03,05,1.10
2013,03,24,03,06,1.10
2013,03,24,03,07,1.10
2013,03,24,03,08,1.20
2013,03,24,03,09,1.20
2013,03,24,03,10,1.20
2013,03,24,03,11,1.20
2013,03,24,03,12,1.20
2013,03,24,03,13,1.20
2013,03,24,03,14,1.20
2013,03,24,03,15,1.20
2013,03,24,03,16,1.20
2013,03,24,03,17,1.20
2013,03,24,03,18,1.20
2013,03,24,03,19,1.20
2013,03,24,03,20,1.20
2013,03,24,03,21,1.20
2013,03,24,03,22,1.10
2013,03,24,03,23,1.10
2013,03,24,03,24,1.10
2013,03,24,03,25,1.10
2013,03,24,03,26,1.00
2013,03,24,03,27,1.00
2013,03,24,03,28,1.00
2013,03,24,03,29,1.00
2013,03,24,03,30,1.00
2013,03,24,03,31,0.90
2013,03,24,03,32,0.90
2013,03,24,03,33,0.90
2013,03,24,03,34,0.90
2013,03,24,03,35,0.90
2013,03,24,03,36,0.90
2013,03,24,03,37,0.90
2013,03,24,03,38,0.90
2013,03,24,03,39,0.90
2013,03,24,03,40,0.90
2013,03,24,03,41,0.90
2013,03,24,03,42,0.90
2013,03,24,03,43,0.90
2013,03,24,03,44,0.90
2013,03,24,03,45,0.90
2013,03,24,03,46,0.90
2013,03,24,03,47,0.90
2013,03,24,03,48,0.90
2013,03,24,03,49,0.90
2013,03,24,03,50,0.90
2013,03,24,03,51,0.90
2013,03,24,03,52,0.80
2013,03,24,03,53,0.80
2013,03,24,03,54,0.80
2013,03,24,03,55,0.80
2013,03,24,03,56,0.80
2013,03,24,03,57,0.80
2013,03,24,03,58,0.80
2013,03,24,03,59,0.80
2013,03,24,04,00,0.80
2013,03,24,04,01,0.80
2013,03,24,04,02,0.80
2013,03,24,04,03,0.80
2013,03,24,04,04,0.80
2013,03,24,04,05,0.80
2013,03,24,04,06,0.80
2013,03,24,04,07,0.80
2013,03,24,04,08,0.80
2013,03,24,04,09,0.80
2013,03,24,04,10,0.70
2013,03,24,04,11,0.70
2013,03,24,04,12,0.70
2013,03,24,04,13,0.70
2013,03,24,04,14,0.70
2013,03,24,04,15,0.60
2013,03,24,04,16,0.60
2013,03,24,04,17,0.60
2013,03,24,04,18,0.60
2013,03,24,04,19,0.60
2013,03,24,04,20,0.60
2013,03,24,04,21,0.60
2013,03,24,04,22,0.60
2013,03,24,04,23,0.60
2013,03,24,04,24,0.60
2013,03,24,04,25,0.60
2013,03,24,04,26,0.60
2013,03,24,04,27,0.60
2013,03,24,04,28,0.70
2013,03,24,04,29,0.70
2013,03,24,04,30,0.70
2013,03,24,04,31,0.70
2013,03,24,04,32,0.70
2013,03,24,04,33,0.70
2013,03,24,04,34,0.70
2013,03,24,04,35,0.70
2013,03,24,04,36,0.70
2013,03,24,04,37,0.70
2013,03,24,04,38,0.70
2013,03,24,04,39,0.70
2013,03,24,04,40,0.70
2013,03,24,04,41,0.70
2013,03,24,04,42,0.70
2013,03,24,04,43,0.70
2013,03,24,04,44,0.70
2013,03,24,04,45,0.70
2013,03,24,04,46,0.60
2013,03,24,04,47,0.60
2013,03,24,04,48,0.60
2013,03,24,04,49,0.60
2013,03,24,04,50,0.60
2013,03,24,04,51,0.60
2013,03,24,04,52,0.70
2013,03,24,04,53,0.70
2013,03,24,04,54,0.70
2013,03,24,04,55,0.70
2013,03,24,04,56,0.70
2013,03,24,04,57,0.70
2013,03,24,04,58,0.70
2013,03,24,04,59,0.70
2013,03,24,05,00,0.70
2013,03,24,05,01,0.70
2013,03,24,05,02,0.70
2013,03,24,05,03,0.70
2013,03,24,05,04,0.80
2013,03,24,05,05,0.80
2013,03,24,05,06,0.80
2013,03,24,05,07,0.80
2013,03,24,05,08,0.80
2013,03,24,05,09,0.80
2013,03,24,05,10,0.80
2013,03,24,05,11,0.80
2013,03,24,05,12,0.80
2013,03,24,05,13,0.80
2013,03,24,05,14,0.80
2013,03,24,05,15,0.80
2013,03,24,05,16,0.80
2013,03,24,05,17,0.80
2013,03,24,05,18,0.80
2013,03,24,05,19,0.80
2013,03,24,05,20,0.80
2013,03,24,05,21,0.80
2013,03,24,05,22,0.90
2013,03,24,05,23,0.90
2013,03,24,05,24,0.90
2013,03,24,05,25,0.90
2013,03,24,05,26,1.00
2013,03,24,05,27,1.00
2013,03,24,05,28,1.00
2013,03,24,05,29,1.00
2013,03,24,05,30,1.00
2013,03,24,05,31,1.00
2013,03,24,05,32,1.00
2013,03,24,05,33,1.00
2013,03,24,05,34,1.00
2013,03,24,05,35,1.00
2013,03,24,05,36,1.10
2013,03,24,05,37,1.10
2013,03,24,05,38,1.10
2013,03,24,05,39,1.10
2013,03,24,05,40,1.10
2013,03,24,05,41,1.10
2013,03,24,05,42,1.20
2013,03,24,05,43,1.20
2013,03,24,05,44,1.20
2013,03,24,05,45,1.20
2013,03,24,05,46,1.20
2013,03,24,05,47,1.20
2013,03,24,05,48,1.20
2013,03,24,05,49,1.20
2013,03,24,05,50,1.30
2013,03,24,05,51,1.30
2013,03,24,05,52,1.30
2013,03,24,05,53,1.30
2013,03,24,05,54,1.30
2013,03,24,05,55,1.30
2013,03,24,05,56,1.30
2013,03,24,05,57,1.30
2013,03,24,05,58,1.30
2013,03,24,05,59,1.30
2013,03,24,06,00,1.30
2013,03,24,06,01,1.30
2013,03,24,06,02,1.30
2013,03,24,06,03,1.30
2013,03,24,06,04,1.30
2013,03,24,06,05,1.30
2013,03,24,06,06,1.30
2013,03,24,06,07,1.40
2013,03,24,06,08,1.40
2013,03,24,06,09,1.40
2013,03,24,06,10,1.40
2013,03,24,06,11,1.40
2013,03,24,06,12,1.40
2013,03,24,06,13,1.30
2013,03,24,06,14,1.30
2013,03,24,06,15,1.30
2013,03,24,06,16,1.30
2013,03,24,06,17,1.30
2013,03,24,06,18,1.30
2013,03,24,06,19,1.30
2013,03,24,06,20,1.40
2013,03,24,06,21,1.40
2013,03,24,06,22,1.40
2013,03,24,06,23,1.40
2013,03,24,06,24,1.40
2013,03,24,06,25,1.40
2013,03,24,06,26,1.40
2013,03,24,06,27,1.40
2013,03,24,06,28,1.40
2013,03,24,06,29,1.40
2013,03,24,06,30,1.40
2013,03,24,06,31,1.30
2013,03,24,06,32,1.30
2013,03,24,06,33,1.30
2013,03,24,06,34,1.30
2013,03,24,06,35,1.30
2013,03,24,06,36,1.30
2013,03,24,06,37,1.40
2013,03,24,06,38,1.40
2013,03,24,06,39,1.40
2013,03,24,06,40,1.40
2013,03,24,06,41,1.40
2013,03,24,06,42,1.40
2013,03,24,06,43,1.40
2013,03,24,06,44,1.40
2013,03,24,06,45,1.40
2013,03,24,06,46,1.40
2013,03,24,06,47,1.40
2013,03,24,06,48,1.40
2013,03,24,06,49,1.40
2013,03,24,06,50,1.40
2013,03,24,06,51,1.50
2013,03,24,06,52,1.50
2013,03,24,06,53,1.50
2013,03,24,06,54,1.50
2013,03,24,06,55,1.50
2013,03,24,06,56,1.50
2013,03,24,06,57,1.50
2013,03,24,06,58,1.50
2013,03,24,06,59,1.50
2013,03,24,07,00,1.50
2013,03,24,07,01,1.50
2013,03,24,07,02,1.50
2013,03,24,07,03,1.50
2013,03,24,07,04,1.50
2013,03,24,07,05,1.50
2013,03,24,07,06,1.50
2013,03,24,07,07,1.50
2013,03,24,07,08,1.50
2013,03,24,07,09,1.50
2013,03,24,07,10,1.50
2013,03,24,07,11,1.50
2013,03,24,07,12,1.50
2013,03,24,07,13,1.50
2013,03,24,07,14,1.50
2013,03,24,07,15,1.50
2013,03,24,07,16,1.50
2013,03,24,07,17,1.50
2013,03,24,07,18,1.50
2013,03,24,07,19,1.50
2013,03,24,07,20,1.50
2013,03,24,07,21,1.50
2013,03,24,07,22,1.50
2013,03,24,07,23,1.60
2013,03,24,07,24,1.60
2013,03,24,07,25,1.60
2013,03,24,07,26,1.60
2013,03,24,07,27,1.60
2013,03,24,07,28,1.70
2013,03,24,07,29,1.70
2013,03,24,07,30,1.70
2013,03,24,07,31,1.80
2013,03,24,07,32,1.80
2013,03,24,07,33,1.80
2013,03,24,07,34,1.80
2013,03,24,07,35,1.80
2013,03,24,07,36,1.80
2013,03,24,07,37,1.80
2013,03,24,07,38,1.80
2013,03,24,07,39,1.80
2013,03,24,07,40,1.80
2013,03,24,07,41,1.90
2013,03,24,07,42,1.90
2013,03,24,07,43,1.90
2013,03,24,07,44,1.90
2013,03,24,07,45,1.90
2013,03,24,07,46,2.00
2013,03,24,07,47,2.00
2013,03,24,07,48,2.00
2013,03,24,07,49,2.00
2013,03,24,07,50,2.00
2013,03,24,07,51,2.00
2013,03,24,07,52,2.00
2013,03,24,07,53,2.10
2013,03,24,07,54,2.10
2013,03,24,07,55,2.10
2013,03,24,07,56,2.10
2013,03,24,07,57,2.10
2013,03,24,07,58,2.10
2013,03,24,07,59,2.10
2013,03,24,08,00,2.20
2013,03,24,08,01,2.20
2013,03,24,08,02,2.20
2013,03,24,08,03,2.20
2013,03,24,08,04,2.20
2013,03,24,08,05,2.20
2013,03,24,08,06,2.20
2013,03,24,08,07,2.20
2013,03,24,08,08,2.20
2013,03,24,08,09,2.20
2013,03,24,08,10,2.20
2013,03,24,08,11,2.20
2013,03,24,08,12,2.20
2013,03,24,08,13,2.20
2013,03,24,08,14,2.20
2013,03,24,08,15,2.20
2013,03,24,08,16,2.20
2013,03,24,08,17,2.20
2013,03,24,08,18,2.20
2013,03,24,08,19,2.20
2013,03,24,08,20,2.20
2013,03,24,08,21,2.20
2013,03,24,08,22,2.20
2013,03,24,08,23,2.20
2013,03,24,08,24,2.30
2013,03,24,08,25,2.30
2013,03,24,08,26,2.30
2013,03,24,08,27,2.30
2013,03,24,08,28,2.30
2013,03,24,08,29,2.30
2013,03,24,08,30,2.40
2013,03,24,08,31,2.40
2013,03,24,08,32,2.40
2013,03,24,08,33,2.40
2013,03,24,08,34,2.50
2013,03,24,08,35,2.50
2013,03,24,08,36,2.50
2013,03,24,08,37,2.60
2013,03,24,08,38,2.60
2013,03,24,08,39,2.60
2013,03,24,08,40,2.70
2013,03,24,08,41,2.70
2013,03,24,08,42,2.70
2013,03,24,08,43,2.70
2013,03,24,08,44,2.80
2013,03,24,08,45,2.80
2013,03,24,08,46,2.80
2013,03,24,08,47,2.90
2013,03,24,08,48,2.90
2013,03,24,08,49,2.90
2013,03,24,08,50,2.90
2013,03,24,08,51,3.00
2013,03,24,08,52,3.10
2013,03,24,08,53,3.10
2013,03,24,08,54,3.10
2013,03,24,08,55,3.10
2013,03,24,08,56,3.10
2013,03,24,08,57,3.20
2013,03,24,08,58,3.20
2013,03,24,08,59,3.20
2013,03,24,09,00,3.30
2013,03,24,09,01,3.30
2013,03,24,09,02,3.30
2013,03,24,09,03,3.30
2013,03,24,09,04,3.30
2013,03,24,09,05,3.30
2013,03,24,09,06,3.30
2013,03,24,09,07,3.40
2013,03,24,09,08,3.40
2013,03,24,09,09,3.50
2013,03,24,09,10,3.50
2013,03,24,09,11,3.50
2013,03,24,09,12,3.50
2013,03,24,09,13,3.60
2013,03,24,09,14,3.60
2013,03,24,09,15,3.60
2013,03,24,09,16,3.60
2013,03,24,09,17,3.70
2013,03,24,09,18,3.70
2013,03,24,09,19,3.80
2013,03,24,09,20,3.80
2013,03,24,09,21,3.80
2013,03,24,09,22,3.80
2013,03,24,09,23,3.80
2013,03,24,09,24,3.80
2013,03,24,09,25,3.90
2013,03,24,09,26,3.90
2013,03,24,09,27,3.90
2013,03,24,09,28,3.90
2013,03,24,09,29,3.90
2013,03,24,09,30,4.00
2013,03,24,09,31,4.00
2013,03,24,09,32,4.00
2013,03,24,09,33,4.00
2013,03,24,09,34,4.00
2013,03,24,09,35,4.00
2013,03,24,09,36,4.00
2013,03,24,09,37,4.00
2013,03,24,09,38,4.00
2013,03,24,09,39,4.10
2013,03,24,09,40,4.10
2013,03,24,09,41,4.10
2013,03,24,09,42,4.20
2013,03,24,09,43,4.20
2013,03,24,09,44,4.20
2013,03,24,09,45,4.20
2013,03,24,09,46,4.20
2013,03,24,09,47,4.30
2013,03,24,09,48,4.30
2013,03,24,09,49,4.30
2013,03,24,09,50,4.30
2013,03,24,09,51,4.30
2013,03,24,09,52,4.40
2013,03,24,09,53,4.40
2013,03,24,09,54,4.40
2013,03,24,09,55,4.40
2013,03,24,09,56,4.40
2013,03,24,09,57,4.50
2013,03,24,09,58,4.50
2013,03,24,09,59,4.50
2013,03,24,10,00,4.50
2013,03,24,10,01,4.60
2013,03,24,10,02,4.60
2013,03,24,10,03,4.60
2013,03,24,10,04,4.60
2013,03,24,10,05,4.60
2013,03,24,10,06,4.70
2013,03,24,10,07,4.70
2013,03,24,10,08,4.70
2013,03,24,10,09,4.70
2013,03,24,10,10,4.80
2013,03,24,10,11,4.80
2013,03,24,10,12,4.80
2013,03,24,10,13,4.90
2013,03,24,10,14,4.90
2013,03,24,10,15,4.90
2013,03,24,10,16,4.90
2013,03,24,10,17,4.90
2013,03,24,10,18,4.90
2013,03,24,10,19,5.00
2013,03,24,10,20,5.10
2013,03,24,10,21,5.10
2013,03,24,10,22,5.10
2013,03,24,10,23,5.10
2013,03,24,10,24,5.10
2013,03,24,10,25,5.20
2013,03,24,10,26,5.20
2013,03,24,10,27,5.20
2013,03,24,10,28,5.30
2013,03,24,10,29,5.30
2013,03,24,10,30,5.30
2013,03,24,10,31,5.20
2013,03,24,10,32,5.20
2013,03,24,10,33,5.30
2013,03,24,10,34,5.30
2013,03,24,10,35,5.30
2013,03,24,10,36,5.30
2013,03,24,10,37,5.30
2013,03,24,10,38,5.30
2013,03,24,10,39,5.40
2013,03,24,10,40,5.40
2013,03,24,10,41,5.40
2013,03,24,10,42,5.40
2013,03,24,10,43,5.40
2013,03,24,10,44,5.40
2013,03,24,10,45,5.50
2013,03,24,10,46,5.50
2013,03,24,10,47,5.50
2013,03,24,10,48,5.60
2013,03,24,10,49,5.60
2013,03,24,10,50,5.70
2013,03,24,10,51,5.70
2013,03,24,10,52,5.70
2013,03,24,10,53,5.70
2013,03,24,10,54,5.80
2013,03,24,10,55,5.80
2013,03,24,10,56,5.80
2013,03,24,10,57,5.80
2013,03,24,10,58,5.90
2013,03,24,10,59,5.90
2013,03,24,11,00,6.00
2013,03,24,11,01,6.10
2013,03,24,11,02,6.20
2013,03,24,11,03,6.20
2013,03,24,11,04,6.20
2013,03,24,11,05,6.20
2013,03,24,11,06,6.30
2013,03,24,11,07,6.30
2013,03,24,11,08,6.30
2013,03,24,11,09,6.30
2013,03,24,11,10,6.30
2013,03,24,11,11,6.30
2013,03,24,11,12,6.40
2013,03,24,11,13,6.40
2013,03,24,11,14,6.40
2013,03,24,11,15,6.40
2013,03,24,11,16,6.40
2013,03,24,11,17,6.40
2013,03,24,11,18,6.50
2013,03,24,11,19,6.40
2013,03,24,11,20,6.50
2013,03,24,11,21,6.60
2013,03,24,11,22,6.60
2013,03,24,11,23,6.50
2013,03,24,11,24,6.40
2013,03,24,11,25,6.40
2013,03,24,11,26,6.40
2013,03,24,11,27,6.30
2013,03,24,11,28,6.30
2013,03,24,11,29,6.30
2013,03,24,11,30,6.40
2013,03,24,11,31,6.40
2013,03,24,11,32,6.40
2013,03,24,11,33,6.40
2013,03,24,11,34,6.40
2013,03,24,11,35,6.40
2013,03,24,11,36,6.40
2013,03,24,11,37,6.40
2013,03,24,11,38,6.40
2013,03,24,11,39,6.40
2013,03,24,11,40,6.30
2013,03,24,11,41,6.20
2013,03,24,11,42,6.20
2013,03,24,11,43,6.20
2013,03,24,11,44,6.20
2013,03,24,11,45,6.20
2013,03,24,11,46,6.20
2013,03,24,11,47,6.20
2013,03,24,11,48,6.20
2013,03,24,11,49,6.20
2013,03,24,11,50,6.20
2013,03,24,11,51,6.30
2013,03,24,11,52,6.40
2013,03,24,11,53,6.40
2013,03,24,11,54,6.40
2013,03,24,11,55,6.40
2013,03,24,11,56,6.50
2013,03,24,11,57,6.60
2013,03,24,11,58,6.60
2013,03,24,11,59,6.50
2013,03,24,12,00,6.40
2013,03,24,12,01,6.40
2013,03,24,12,02,6.40
2013,03,24,12,03,6.60
2013,03,24,12,04,6.60
2013,03,24,12,05,6.60
2013,03,24,12,06,6.60
2013,03,24,12,07,6.60
2013,03,24,12,08,6.60
2013,03,24,12,09,6.60
2013,03,24,12,10,6.60
2013,03,24,12,11,6.60
2013,03,24,12,12,6.60
2013,03,24,12,13,6.60
2013,03,24,12,14,6.60
2013,03,24,12,15,6.60
2013,03,24,12,16,6.60
2013,03,24,12,17,6.60
2013,03,24,12,18,6.60
2013,03,24,12,19,6.60
2013,03,24,12,20,6.60
2013,03,24,12,21,6.60
2013,03,24,12,22,6.60
2013,03,24,12,23,6.70
2013,03,24,12,24,6.80
2013,03,24,12,25,6.80
2013,03,24,12,26,6.80
2013,03,24,12,27,6.80
2013,03,24,12,28,6.80
2013,03,24,12,29,6.80
2013,03,24,12,30,6.80
2013,03,24,12,31,6.80
2013,03,24,12,32,6.90
2013,03,24,12,33,6.90
2013,03,24,12,34,6.90
2013,03,24,12,35,7.00
2013,03,24,12,36,7.00
2013,03,24,12,37,7.10
2013,03,24,12,38,7.10
2013,03,24,12,39,7.10
2013,03,24,12,40,7.20
2013,03,24,12,41,7.20
2013,03,24,12,42,7.20
2013,03,24,12,43,7.20
2013,03,24,12,44,7.10
2013,03,24,12,45,7.10
2013,03,24,12,46,7.10
2013,03,24,12,47,7.10
2013,03,24,12,48,7.10
2013,03,24,12,49,7.10
2013,03,24,12,50,7.10
2013,03,24,12,51,7.10
2013,03,24,12,52,7.10
2013,03,24,12,53,7.10
2013,03,24,12,54,7.00
2013,03,24,12,55,7.00
2013,03,24,12,56,7.00
2013,03,24,12,57,7.00
2013,03,24,12,58,7.00
2013,03,24,12,59,7.00
2013,03,24,13,00,7.10
2013,03,24,13,01,7.20
2013,03,24,13,02,7.20
2013,03,24,13,03,7.20
2013,03,24,13,04,7.20
2013,03,24,13,05,7.20
2013,03,24,13,06,7.30
2013,03,24,13,07,7.30
2013,03,24,13,08,7.30
2013,03,24,13,09,7.30
2013,03,24,13,10,7.30
2013,03,24,13,11,7.30
2013,03,24,13,12,7.20
2013,03,24,13,13,7.20
2013,03,24,13,14,7.20
2013,03,24,13,15,7.20
2013,03,24,13,16,7.30
2013,03,24,13,17,7.30
2013,03,24,13,18,7.40
2013,03,24,13,19,7.50
2013,03,24,13,20,7.50
2013,03,24,13,21,7.60
2013,03,24,13,22,7.60
2013,03,24,13,23,7.70
2013,03,24,13,24,7.70
2013,03,24,13,25,7.70
2013,03,24,13,26,7.80
2013,03,24,13,27,7.80
2013,03,24,13,28,7.80
2013,03,24,13,29,7.80
2013,03,24,13,30,7.80
2013,03,24,13,31,7.80
2013,03,24,13,32,7.80
2013,03,24,13,33,7.80
2013,03,24,13,34,7.80
2013,03,24,13,35,7.80
2013,03,24,13,36,7.80
2013,03,24,13,37,7.80
2013,03,24,13,38,7.80
2013,03,24,13,39,7.80
2013,03,24,13,40,7.80
2013,03,24,13,41,7.80
2013,03,24,13,42,7.80
2013,03,24,13,43,7.80
2013,03,24,13,44,7.80
2013,03,24,13,45,7.80
2013,03,24,13,46,7.80
2013,03,24,13,47,7.80
2013,03,24,13,48,7.80
2013,03,24,13,49,7.80
2013,03,24,13,50,7.80
2013,03,24,13,51,7.80
2013,03,24,13,52,7.80
2013,03,24,13,53,7.80
2013,03,24,13,54,7.90
2013,03,24,13,55,7.90
2013,03,24,13,56,7.90
2013,03,24,13,57,7.90
2013,03,24,13,58,7.90
2013,03,24,13,59,7.90
2013,03,24,14,00,7.90
2013,03,24,14,01,8.00
2013,03,24,14,02,8.00
2013,03,24,14,03,8.00
2013,03,24,14,04,7.90
2013,03,24,14,05,7.90
2013,03,24,14,06,7.90
2013,03,24,14,07,8.00
2013,03,24,14,08,8.00
2013,03,24,14,09,8.00
2013,03,24,14,10,8.00
2013,03,24,14,11,8.00
2013,03,24,14,12,8.00
2013,03,24,14,13,8.10
2013,03,24,14,14,8.20
2013,03,24,14,15,8.20
2013,03,24,14,16,8.30
2013,03,24,14,17,8.30
2013,03,24,14,18,8.40
2013,03,24,14,19,8.50
2013,03,24,14,20,8.60
2013,03,24,14,21,8.70
2013,03,24,14,22,8.80
2013,03,24,14,23,8.80
2013,03,24,14,24,8.80
2013,03,24,14,25,8.80
2013,03,24,14,26,8.80
2013,03,24,14,27,8.80
2013,03,24,14,28,8.90
2013,03,24,14,29,8.90
2013,03,24,14,30,9.00
2013,03,24,14,31,8.90
2013,03,24,14,32,8.90
2013,03,24,14,33,8.80
2013,03,24,14,34,8.70
2013,03,24,14,35,8.70
2013,03,24,14,36,8.70
2013,03,24,14,37,8.70
2013,03,24,14,38,8.80
2013,03,24,14,39,8.90
2013,03,24,14,40,8.90
2013,03,24,14,41,8.90
2013,03,24,14,42,8.90
2013,03,24,14,43,8.90
2013,03,24,14,44,9.00
2013,03,24,14,45,9.00
2013,03,24,14,46,9.00
2013,03,24,14,47,9.00
2013,03,24,14,48,9.10
2013,03,24,14,49,9.20
2013,03,24,14,50,9.20
2013,03,24,14,51,9.20
2013,03,24,14,52,9.00
2013,03,24,14,53,9.00
2013,03,24,14,54,8.90
2013,03,24,14,55,8.90
2013,03,24,14,56,8.90
2013,03,24,14,57,9.00
2013,03,24,14,58,9.00
2013,03,24,14,59,9.00
2013,03,24,15,00,9.00
2013,03,24,15,01,9.10
2013,03,24,15,02,9.20
2013,03,24,15,03,9.20
2013,03,24,15,04,9.30
2013,03,24,15,05,9.40
2013,03,24,15,06,9.50
2013,03,24,15,07,9.60
2013,03,24,15,08,9.50
2013,03,24,15,09,9.50
2013,03,24,15,10,9.50
2013,03,24,15,11,9.50
2013,03,24,15,12,9.50
2013,03,24,15,13,9.50
2013,03,24,15,14,9.60
2013,03,24,15,15,9.50
2013,03,24,15,16,9.40
2013,03,24,15,17,9.40
2013,03,24,15,18,9.30
2013,03,24,15,19,9.30
2013,03,24,15,20,9.40
2013,03,24,15,21,9.50
2013,03,24,15,22,9.60
2013,03,24,15,23,9.70
2013,03,24,15,24,9.80
2013,03,24,15,25,9.90
2013,03,24,15,26,10.00
2013,03,24,15,27,10.10
2013,03,24,15,28,9.90
2013,03,24,15,29,9.70
2013,03,24,15,30,9.60
2013,03,24,15,31,9.60
2013,03,24,15,32,9.60
2013,03,24,15,33,9.60
2013,03,24,15,34,9.60
2013,03,24,15,35,9.70
2013,03,24,15,36,9.70
2013,03,24,15,37,9.70
2013,03,24,15,38,9.70
2013,03,24,15,39,9.50
2013,03,24,15,40,9.40
2013,03,24,15,41,9.30
2013,03,24,15,42,9.30
2013,03,24,15,43,9.30
2013,03,24,15,44,9.30
2013,03,24,15,45,9.40
2013,03,24,15,46,9.40
2013,03,24,15,47,9.30
2013,03,24,15,48,9.30
2013,03,24,15,49,9.40
2013,03,24,15,50,9.50
2013,03,24,15,51,9.60
2013,03,24,15,52,9.60
2013,03,24,15,53,9.60
2013,03,24,15,54,9.60
2013,03,24,15,55,9.60
2013,03,24,15,56,9.50
2013,03,24,15,57,9.50
2013,03,24,15,58,9.40
2013,03,24,15,59,9.40
2013,03,24,16,00,9.40
2013,03,24,16,01,9.40
2013,03,24,16,02,9.40
2013,03,24,16,03,9.50
2013,03,24,16,04,9.50
2013,03,24,16,05,9.50
2013,03,24,16,06,9.60
2013,03,24,16,07,9.70
2013,03,24,16,08,9.70
2013,03,24,16,09,9.70
2013,03,24,16,10,9.70
2013,03,24,16,11,9.70
2013,03,24,16,12,9.70
2013,03,24,16,13,9.60
2013,03,24,16,14,9.60
2013,03,24,16,15,9.60
2013,03,24,16,16,9.60
2013,03,24,16,17,9.50
2013,03,24,16,18,9.40
2013,03,24,16,19,9.40
2013,03,24,16,20,9.40
2013,03,24,16,21,9.40
2013,03,24,16,22,9.40
2013,03,24,16,23,9.40
2013,03,24,16,24,9.30
2013,03,24,16,25,9.30
2013,03,24,16,26,9.20
2013,03,24,16,27,9.20
2013,03,24,16,28,9.20
2013,03,24,16,29,9.20
2013,03,24,16,30,9.20
2013,03,24,16,31,9.20
2013,03,24,16,32,9.10
2013,03,24,16,33,9.00
2013,03,24,16,34,8.90
2013,03,24,16,35,8.80
2013,03,24,16,36,8.80
2013,03,24,16,37,8.70
2013,03,24,16,38,8.80
2013,03,24,16,39,8.80
2013,03,24,16,40,8.90
2013,03,24,16,41,9.00
2013,03,24,16,42,9.00
2013,03,24,16,43,9.10
2013,03,24,16,44,9.20
2013,03,24,16,45,9.20
2013,03,24,16,46,9.30
2013,03,24,16,47,9.40
2013,03,24,16,48,9.40
2013,03,24,16,49,9.30
2013,03,24,16,50,9.20
2013,03,24,16,51,9.20
2013,03,24,16,52,9.00
2013,03,24,16,53,9.00
2013,03,24,16,54,9.00
2013,03,24,16,55,9.00
2013,03,24,16,56,9.00
2013,03,24,16,57,9.00
2013,03,24,16,58,9.10
2013,03,24,16,59,9.10
2013,03,24,17,00,9.00
2013,03,24,17,01,9.00
2013,03,24,17,02,9.00
2013,03,24,17,03,9.00
2013,03,24,17,04,8.90
2013,03,24,17,05,8.90
2013,03,24,17,06,8.90
2013,03,24,17,07,8.90
2013,03,24,17,08,8.90
2013,03,24,17,09,9.00
2013,03,24,17,10,9.00
2013,03,24,17,11,9.10
2013,03,24,17,12,9.00
2013,03,24,17,13,9.00
2013,03,24,17,14,9.00
2013,03,24,17,15,9.00
2013,03,24,17,16,9.10
2013,03,24,17,17,9.10
2013,03,24,17,18,9.20
2013,03,24,17,19,9.20
2013,03,24,17,20,9.20
2013,03,24,17,21,9.20
2013,03,24,17,22,9.20
2013,03,24,17,23,9.20
2013,03,24,17,24,9.30
2013,03,24,17,25,9.30
2013,03,24,17,26,9.30
2013,03,24,17,27,9.30
2013,03,24,17,28,9.30
2013,03,24,17,29,9.30
2013,03,24,17,30,9.20
2013,03,24,17,31,9.20
2013,03,24,17,32,9.20
2013,03,24,17,33,9.20
2013,03,24,17,34,9.20
2013,03,24,17,35,9.20
2013,03,24,17,36,9.20
2013,03,24,17,37,9.20
2013,03,24,17,38,9.20
2013,03,24,17,39,9.20
2013,03,24,17,40,9.30
2013,03,24,17,41,9.30
2013,03,24,17,42,9.30
2013,03,24,17,43,9.30
2013,03,24,17,44,9.30
2013,03,24,17,45,9.30
2013,03,24,17,46,9.30
2013,03,24,17,47,9.30
2013,03,24,17,48,9.40
2013,03,24,17,49,9.40
2013,03,24,17,50,9.40
2013,03,24,17,51,9.40
2013,03,24,17,52,9.40
2013,03,24,17,53,9.40
2013,03,24,17,54,9.50
2013,03,24,17,55,9.50
2013,03,24,17,56,9.50
2013,03,24,17,57,9.50
2013,03,24,17,58,9.50
2013,03,24,17,59,9.50
2013,03,24,18,00,9.50
2013,03,24,18,01,9.60
2013,03,24,18,02,9.60
2013,03,24,18,03,9.60
2013,03,24,18,04,9.60
2013,03,24,18,05,9.60
2013,03,24,18,06,9.60
2013,03,24,18,07,9.50
2013,03,24,18,08,9.50